COSMOS 886 DEB, 9797

Orbit data source: Space-Track

COSMOS 886 DEB, 9797 is space debris in LEO originally from a launch on Mon, 27 Dec 1976 UTC launched from the Tyuratam Missile And Space Complex (TTMTR). Debris objects in space refer to the collection of defunct objects orbiting the Earth. Examples of debris include non-operational satellites, rocket bodies, and fragments generated from explosions, collisions, or faulty payload assembly.

Loading next visibility...
Identifier
9797, 1976-126X
Orbit
LEO
Country
Flag of CISCIS
Related business
Manufacturer
Unknown
Mission
Spacecraft
Bus & Motor
Unknown
Mass
Unknown
Launch date (UTC)
1976-12-27 (49 years ago)
Launch vehicle
Unknown
Launch site
Tyuratam Missile And Space Complex (TTMTR)
Object type
Payload
Rocket body
Debris
Shape & HBR
Unknown shape, 0.1 m
Radar Cross Section
Small (<0.1 m²)

Expand to show TLE details & history
Last TLE update: 13 hours ago

TLE from 13 hours ago
0 COSMOS 886 DEB
1  9797U 76126X   26129.99640514  .00001102  00000-0  82315-3 0  9998
2  9797  65.8167 267.1375 0904959 199.3653 157.0798 12.81745396265062
Epoch: 2026-05-09T23:54Z
TLE epoch observation values (Epoch: 2026-05-09T23:54:49.404Z)
Latitude
-0.00006°
Longitude
40.6258°
Altitude
1,987.761 km
Speed
6.606 km/s
True Right ascension
17h 48m 32s
True Declination
0° 00' 00"
Sunlit
Object was in full shadow at epoch
Visualization orbit readout
Latitude
Unknown
Longitude
Unknown
Altitude
Unknown
Speed
Unknown
Apparent Right ascension
Unknown
Apparent Declination
Unknown
Sunlit
N/A
Visualization observer readout
Local Sidereal Time
21:18:54
Azimuth
Unknown
Elevation
Unknown
Doppler factor
Unknown
Orbital elements
Apogee altitude
2,030.859 km
Perigee altitude
635.201 km
Semi-major axis
7,711.167 km
Eccentricity
0.0905
Inclination
65.8167°
RAAN
267.1375°
Arg. of periapsis
199.3653°
True anomaly
160.73367°
Mean anomaly
157.0798°
Eccentric anomaly
158.94278°
Mean motion
3.20526 °/min
Orbital period
112.32 mins
BSTAR
0.00082315
Loading maneuver chart data...
Computing Atmospheric mass density...
Loading historical data...
Loading historical data...
Loading historical data...
Loading historical data...
Loading historical data...
Loading historical data...
Loading historical data...

Documentation

Showing up to 5 results
|